Satellite-Ground Cal/Val Region Overpasses Predictions

Prediction of Satellite NPP Overpassing Cal/Val Region: PacNW

Region Location: (Latitude: 10.00, Longitude: 139.50) to (Latitude: 22.70, Longitude: 165.60).

Table of predicted overpasses for the next 14.0 days since TLE Epoch: 11/13/2021
Interval Starting Time Starting Location Ending Time Ending Location
1 11/13/2021 03:44:21 ( 10.00, 143.79) 11/13/2021 03:47:57 ( 22.68, 140.77)
2 11/13/2021 14:35:41 ( 19.42, 165.60) 11/13/2021 14:38:21 ( 10.02, 163.39)
3 11/13/2021 16:16:16 ( 22.64, 141.02) 11/13/2021 16:18:02 ( 16.43, 139.51)
4 11/14/2021 03:25:21 ( 10.01, 148.54) 11/14/2021 03:28:57 ( 22.69, 145.52)
5 11/14/2021 15:57:14 ( 22.70, 145.79) 11/14/2021 16:00:50 ( 10.02, 142.77)
6 11/15/2021 03:06:20 ( 10.02, 153.30) 11/15/2021 03:09:56 ( 22.70, 150.27)
7 11/15/2021 15:38:14 ( 22.69, 150.54) 11/15/2021 15:41:50 ( 10.01, 147.52)
8 11/16/2021 02:47:20 ( 10.02, 158.05) 11/16/2021 02:50:55 ( 22.64, 155.04)
9 11/16/2021 15:19:14 ( 22.68, 155.29) 11/16/2021 15:22:50 ( 10.00, 152.27)
10 11/17/2021 02:28:19 ( 10.03, 162.80) 11/17/2021 02:31:54 ( 22.65, 159.79)
11 11/17/2021 15:00:13 ( 22.67, 160.05) 11/17/2021 15:03:48 ( 10.05, 157.04)
12 11/18/2021 02:11:41 ( 18.38, 165.60) 11/18/2021 02:12:54 ( 22.66, 164.55)
13 11/18/2021 03:50:49 ( 10.04, 142.18) 11/18/2021 03:54:01 ( 21.31, 139.51)
14 11/18/2021 14:41:13 ( 22.66, 164.80) 11/18/2021 14:44:48 ( 10.04, 161.79)
15 11/19/2021 03:31:48 ( 10.05, 146.93) 11/19/2021 03:35:23 ( 22.67, 143.92)
16 11/19/2021 16:03:42 ( 22.65, 144.18) 11/19/2021 16:07:17 ( 10.03, 141.17)
17 11/20/2021 03:12:47 ( 10.00, 151.70) 11/20/2021 03:16:23 ( 22.68, 148.68)
18 11/20/2021 15:44:42 ( 22.64, 148.93) 11/20/2021 15:48:17 ( 10.02, 145.92)
19 11/21/2021 02:53:46 ( 10.01, 156.45) 11/21/2021 02:57:22 ( 22.69, 153.43)
20 11/21/2021 15:25:40 ( 22.69, 153.70) 11/21/2021 15:29:16 ( 10.01, 150.68)
21 11/22/2021 02:34:46 ( 10.02, 161.20) 11/22/2021 02:38:21 ( 22.64, 158.20)
22 11/22/2021 15:06:40 ( 22.68, 158.45) 11/22/2021 15:10:15 ( 10.06, 155.44)
23 11/23/2021 02:16:13 ( 11.62, 165.59) 11/23/2021 02:19:21 ( 22.66, 162.95)
24 11/23/2021 03:57:15 ( 10.04, 140.58) 11/23/2021 03:58:34 ( 14.68, 139.51)
25 11/23/2021 14:47:39 ( 22.67, 163.20) 11/23/2021 14:51:14 ( 10.05, 160.19)
26 11/24/2021 03:38:15 ( 10.05, 145.33) 11/24/2021 03:41:50 ( 22.67, 142.32)
27 11/24/2021 14:31:26 ( 12.85, 165.60) 11/24/2021 14:32:14 ( 10.03, 164.95)
28 11/24/2021 16:10:09 ( 22.65, 142.58) 11/24/2021 16:13:44 ( 10.03, 139.57)
29 11/25/2021 03:19:14 ( 10.00, 150.10) 11/25/2021 03:22:50 ( 22.68, 147.08)
30 11/25/2021 15:51:07 ( 22.70, 147.34) 11/25/2021 15:54:43 ( 10.02, 144.32)
31 11/26/2021 03:00:13 ( 10.02, 154.85) 11/26/2021 03:03:49 ( 22.70, 151.83)
